Data supplied by UK-AIR on 8/11/2015
All Data GMT hour ending 
Status: R =Ratified P=Provisional,P*=As supplied
,,Weybourne,,,,,,,,,,,,,,,,,,,,,,,
Date,time,"Ozone",status,unit
 
01-01-2014,01:00,65.45896,R,ugm-3
01-01-2014,02:00,66.12419,R,ugm-3
01-01-2014,03:00,63.41337,R,ugm-3
01-01-2014,04:00,63.61294,R,ugm-3
01-01-2014,05:00,67.60434,R,ugm-3
01-01-2014,06:00,67.00563,R,ugm-3
01-01-2014,07:00,65.70842,R,ugm-3
01-01-2014,08:00,64.66068,R,ugm-3
01-01-2014,09:00,64.36133,R,ugm-3
01-01-2014,10:00,64.61079,R,ugm-3
01-01-2014,11:00,65.95789,R,ugm-3
01-01-2014,12:00,68.80176,R,ugm-3
01-01-2014,13:00,71.19660,R,ugm-3
01-01-2014,14:00,72.44391,R,ugm-3
01-01-2014,15:00,69.99918,R,ugm-3
01-01-2014,16:00,66.35703,R,ugm-3
01-01-2014,17:00,66.20735,R,ugm-3
01-01-2014,18:00,66.15746,R,ugm-3
01-01-2014,19:00,65.05982,R,ugm-3
01-01-2014,20:00,63.16391,R,ugm-3
01-01-2014,21:00,62.16606,R,ugm-3
01-01-2014,22:00,62.01638,R,ugm-3
01-01-2014,23:00,63.01423,R,ugm-3
01-01-2014,24:00,64.66068,R,ugm-3
02-01-2014,01:00,65.92462,R,ugm-3
02-01-2014,02:00,72.64348,R,ugm-3
02-01-2014,03:00,71.24649,R,ugm-3
02-01-2014,04:00,74.19015,R,ugm-3
02-01-2014,05:00,72.79316,R,ugm-3
02-01-2014,06:00,72.64348,R,ugm-3
02-01-2014,07:00,63.61294,R,ugm-3
02-01-2014,08:00,58.37423,R,ugm-3
02-01-2014,09:00,55.77982,R,ugm-3
02-01-2014,10:00,56.47831,R,ugm-3
02-01-2014,11:00,58.32433,R,ugm-3
02-01-2014,12:00,58.97294,R,ugm-3
02-01-2014,13:00,61.01853,R,ugm-3
02-01-2014,14:00,61.96649,R,ugm-3
02-01-2014,15:00,65.95789,R,ugm-3
02-01-2014,16:00,61.76692,R,ugm-3
02-01-2014,17:00,57.72562,R,ugm-3
02-01-2014,18:00,53.58455,R,ugm-3
02-01-2014,19:00,48.44562,R,ugm-3
02-01-2014,20:00,50.79057,R,ugm-3
02-01-2014,21:00,55.33078,R,ugm-3
02-01-2014,22:00,58.07487,R,ugm-3
02-01-2014,23:00,58.92304,R,ugm-3
02-01-2014,24:00,56.97724,R,ugm-3
03-01-2014,01:00,57.27659,R,ugm-3
03-01-2014,02:00,62.59846,R,ugm-3
03-01-2014,03:00,65.25939,R,ugm-3
03-01-2014,04:00,66.00778,R,ugm-3
03-01-2014,05:00,67.30498,R,ugm-3
03-01-2014,06:00,66.05767,R,ugm-3
03-01-2014,07:00,70.44821,R,ugm-3
03-01-2014,08:00,71.64563,R,ugm-3
03-01-2014,09:00,69.94929,R,ugm-3
03-01-2014,10:00,72.89294,R,ugm-3
03-01-2014,11:00,77.28348,R,ugm-3
03-01-2014,12:00,78.13166,R,ugm-3
03-01-2014,13:00,74.14026,R,ugm-3
03-01-2014,14:00,83.02112,R,ugm-3
03-01-2014,15:00,80.32693,R,ugm-3
03-01-2014,16:00,78.58069,R,ugm-3
03-01-2014,17:00,78.28133,R,ugm-3
03-01-2014,18:00,81.07531,R,ugm-3
03-01-2014,19:00,80.72607,R,ugm-3
03-01-2014,20:00,78.28133,R,ugm-3
03-01-2014,21:00,77.08391,R,ugm-3
03-01-2014,22:00,76.03617,R,ugm-3
03-01-2014,23:00,78.83015,R,ugm-3
03-01-2014,24:00,83.81940,R,ugm-3
04-01-2014,01:00,81.82370,R,ugm-3
04-01-2014,02:00,75.83660,R,ugm-3
04-01-2014,03:00,74.14026,R,ugm-3
04-01-2014,04:00,71.94499,R,ugm-3
04-01-2014,05:00,65.25939,R,ugm-3
04-01-2014,06:00,66.40692,R,ugm-3
04-01-2014,07:00,66.65638,R,ugm-3
04-01-2014,08:00,67.05552,R,ugm-3
04-01-2014,09:00,71.14671,R,ugm-3
04-01-2014,10:00,67.20520,R,ugm-3
04-01-2014,11:00,68.60219,R,ugm-3
04-01-2014,12:00,66.60649,R,ugm-3
04-01-2014,13:00,63.16391,R,ugm-3
04-01-2014,14:00,59.72132,R,ugm-3
04-01-2014,15:00,61.21810,R,ugm-3
04-01-2014,16:00,69.35058,R,ugm-3
04-01-2014,17:00,70.84735,R,ugm-3
04-01-2014,18:00,69.05122,R,ugm-3
04-01-2014,19:00,68.65208,R,ugm-3
04-01-2014,20:00,67.40477,R,ugm-3
04-01-2014,21:00,54.78197,R,ugm-3
04-01-2014,22:00,44.75357,R,ugm-3
04-01-2014,23:00,43.90540,R,ugm-3
04-01-2014,24:00,45.30239,R,ugm-3
05-01-2014,01:00,47.83028,R,ugm-3
05-01-2014,02:00,55.87960,R,ugm-3
05-01-2014,03:00,57.22670,R,ugm-3
05-01-2014,04:00,60.41982,R,ugm-3
05-01-2014,05:00,61.11831,R,ugm-3
05-01-2014,06:00,59.97079,R,ugm-3
05-01-2014,07:00,58.77337,R,ugm-3
05-01-2014,08:00,61.96649,R,ugm-3
05-01-2014,09:00,60.36993,R,ugm-3
05-01-2014,10:00,60.27014,R,ugm-3
05-01-2014,11:00,57.67573,R,ugm-3
05-01-2014,12:00,58.52390,R,ugm-3
05-01-2014,13:00,59.92089,R,ugm-3
05-01-2014,14:00,56.97724,R,ugm-3
05-01-2014,15:00,58.07487,R,ugm-3
05-01-2014,16:00,59.72132,R,ugm-3
05-01-2014,17:00,61.81681,R,ugm-3
05-01-2014,18:00,66.30713,R,ugm-3
05-01-2014,19:00,66.80606,R,ugm-3
05-01-2014,20:00,58.32433,R,ugm-3
05-01-2014,21:00,62.21595,R,ugm-3
05-01-2014,22:00,64.06197,R,ugm-3
05-01-2014,23:00,61.11831,R,ugm-3
05-01-2014,24:00,59.17251,R,ugm-3
06-01-2014,01:00,59.00620,R,ugm-3
06-01-2014,02:00,59.80448,R,ugm-3
06-01-2014,03:00,60.96864,R,ugm-3
06-01-2014,04:00,67.40477,R,ugm-3
06-01-2014,05:00,73.24219,R,ugm-3
06-01-2014,06:00,77.68262,R,ugm-3
06-01-2014,07:00,80.67617,R,ugm-3
06-01-2014,08:00,83.12091,R,ugm-3
06-01-2014,09:00,84.31833,R,ugm-3
06-01-2014,10:00,77.78241,R,ugm-3
06-01-2014,11:00,77.03402,R,ugm-3
06-01-2014,12:00,78.48090,R,ugm-3
06-01-2014,13:00,77.13381,R,ugm-3
06-01-2014,14:00,74.73897,R,ugm-3
06-01-2014,15:00,73.09251,R,ugm-3
06-01-2014,16:00,76.83445,R,ugm-3
06-01-2014,17:00,75.03832,R,ugm-3
06-01-2014,18:00,73.14241,R,ugm-3
06-01-2014,19:00,72.34413,R,ugm-3
06-01-2014,20:00,68.50240,R,ugm-3
06-01-2014,21:00,69.20090,R,ugm-3
06-01-2014,22:00,70.64778,R,ugm-3
06-01-2014,23:00,69.79961,R,ugm-3
06-01-2014,24:00,71.44606,R,ugm-3
07-01-2014,01:00,71.77868,R,ugm-3
07-01-2014,02:00,76.96750,R,ugm-3
07-01-2014,03:00,74.73897,R,ugm-3
07-01-2014,04:00,70.84735,R,ugm-3
07-01-2014,05:00,69.50025,R,ugm-3
07-01-2014,06:00,69.20090,R,ugm-3
07-01-2014,07:00,67.15531,R,ugm-3
07-01-2014,08:00,65.85810,R,ugm-3
07-01-2014,09:00,70.44821,R,ugm-3
07-01-2014,10:00,66.95574,R,ugm-3
07-01-2014,11:00,67.60434,R,ugm-3
07-01-2014,12:00,70.74757,R,ugm-3
07-01-2014,13:00,71.64563,R,ugm-3
07-01-2014,14:00,70.49810,R,ugm-3
07-01-2014,15:00,68.95144,R,ugm-3
07-01-2014,16:00,67.70412,R,ugm-3
07-01-2014,17:00,64.21165,R,ugm-3
07-01-2014,18:00,64.36133,R,ugm-3
07-01-2014,19:00,68.15316,R,ugm-3
07-01-2014,20:00,67.45466,R,ugm-3
07-01-2014,21:00,65.25939,R,ugm-3
07-01-2014,22:00,65.25939,R,ugm-3
07-01-2014,23:00,64.86025,R,ugm-3
07-01-2014,24:00,64.81036,R,ugm-3
08-01-2014,01:00,64.39459,R,ugm-3
08-01-2014,02:00,63.26369,R,ugm-3
08-01-2014,03:00,62.26584,R,ugm-3
08-01-2014,04:00,61.16821,R,ugm-3
08-01-2014,05:00,61.26799,R,ugm-3
08-01-2014,06:00,61.91659,R,ugm-3
08-01-2014,07:00,62.41552,R,ugm-3
08-01-2014,08:00,63.41337,R,ugm-3
08-01-2014,09:00,61.51745,R,ugm-3
08-01-2014,10:00,59.62154,R,ugm-3
08-01-2014,11:00,59.12261,R,ugm-3
08-01-2014,12:00,59.67143,R,ugm-3
08-01-2014,13:00,61.81681,R,ugm-3
08-01-2014,14:00,59.52175,R,ugm-3
08-01-2014,15:00,56.97724,R,ugm-3
08-01-2014,16:00,53.18541,R,ugm-3
08-01-2014,17:00,50.64089,R,ugm-3
08-01-2014,18:00,47.99659,R,ugm-3
08-01-2014,19:00,37.81852,R,ugm-3
08-01-2014,20:00,30.93335,R,ugm-3
08-01-2014,21:00,43.15701,R,ugm-3
08-01-2014,22:00,50.49121,R,ugm-3
08-01-2014,23:00,47.14841,R,ugm-3
08-01-2014,24:00,40.56260,R,ugm-3
09-01-2014,01:00,37.85178,R,ugm-3
09-01-2014,02:00,36.05565,R,ugm-3
09-01-2014,03:00,37.76862,R,ugm-3
09-01-2014,04:00,44.65379,R,ugm-3
09-01-2014,05:00,69.60004,R,ugm-3
09-01-2014,06:00,75.48735,R,ugm-3
09-01-2014,07:00,74.83875,R,ugm-3
09-01-2014,08:00,77.53295,R,ugm-3
09-01-2014,09:00,71.39617,R,ugm-3
09-01-2014,10:00,70.69767,R,ugm-3
09-01-2014,11:00,52.78627,R,ugm-3
09-01-2014,12:00,63.66283,R,ugm-3
09-01-2014,13:00,63.41337,R,ugm-3
09-01-2014,14:00,51.98799,R,ugm-3
09-01-2014,15:00,55.77982,R,ugm-3
09-01-2014,16:00,51.98799,R,ugm-3
09-01-2014,17:00,57.12691,R,ugm-3
09-01-2014,18:00,57.92519,R,ugm-3
09-01-2014,19:00,57.82541,R,ugm-3
09-01-2014,20:00,53.18541,R,ugm-3
09-01-2014,21:00,53.38498,R,ugm-3
09-01-2014,22:00,51.83831,R,ugm-3
09-01-2014,23:00,51.38928,R,ugm-3
09-01-2014,24:00,52.33723,R,ugm-3
10-01-2014,01:00,50.89035,R,ugm-3
10-01-2014,02:00,52.15429,R,ugm-3
10-01-2014,03:00,53.38498,R,ugm-3
10-01-2014,04:00,50.84046,R,ugm-3
10-01-2014,05:00,51.68863,R,ugm-3
10-01-2014,06:00,50.69078,R,ugm-3
10-01-2014,07:00,47.99659,R,ugm-3
10-01-2014,08:00,47.19831,R,ugm-3
10-01-2014,09:00,51.83831,R,ugm-3
10-01-2014,10:00,53.73422,R,ugm-3
10-01-2014,11:00,52.98584,R,ugm-3
10-01-2014,12:00,52.13766,R,ugm-3
10-01-2014,13:00,53.48476,R,ugm-3
10-01-2014,14:00,57.22670,R,ugm-3
10-01-2014,15:00,52.83616,R,ugm-3
10-01-2014,16:00,51.43917,R,ugm-3
10-01-2014,17:00,47.69723,R,ugm-3
10-01-2014,18:00,36.32174,R,ugm-3
10-01-2014,19:00,33.57765,R,ugm-3
10-01-2014,20:00,36.87056,R,ugm-3
10-01-2014,21:00,43.50626,R,ugm-3
10-01-2014,22:00,46.64949,R,ugm-3
10-01-2014,23:00,48.34583,R,ugm-3
10-01-2014,24:00,48.64519,R,ugm-3
11-01-2014,01:00,54.08347,R,ugm-3
11-01-2014,02:00,62.26584,R,ugm-3
11-01-2014,03:00,60.81896,R,ugm-3
11-01-2014,04:00,60.51960,R,ugm-3
11-01-2014,05:00,62.11616,R,ugm-3
11-01-2014,06:00,61.11831,R,ugm-3
11-01-2014,07:00,59.92089,R,ugm-3
11-01-2014,08:00,60.56950,R,ugm-3
11-01-2014,09:00,60.51960,R,ugm-3
11-01-2014,10:00,59.62154,R,ugm-3
11-01-2014,11:00,54.68218,R,ugm-3
11-01-2014,12:00,57.72562,R,ugm-3
11-01-2014,13:00,59.62154,R,ugm-3
11-01-2014,14:00,61.56735,R,ugm-3
11-01-2014,15:00,59.82111,R,ugm-3
11-01-2014,16:00,52.53680,R,ugm-3
11-01-2014,17:00,51.18971,R,ugm-3
11-01-2014,18:00,52.18756,R,ugm-3
11-01-2014,19:00,55.23100,R,ugm-3
11-01-2014,20:00,51.98799,R,ugm-3
11-01-2014,21:00,52.78627,R,ugm-3
11-01-2014,22:00,48.19616,R,ugm-3
11-01-2014,23:00,41.56045,R,ugm-3
11-01-2014,24:00,40.76217,R,ugm-3
12-01-2014,01:00,39.91400,R,ugm-3
12-01-2014,02:00,39.58138,R,ugm-3
12-01-2014,03:00,41.71013,R,ugm-3
12-01-2014,04:00,37.02024,R,ugm-3
12-01-2014,05:00,42.85766,R,ugm-3
12-01-2014,06:00,34.97464,R,ugm-3
12-01-2014,07:00,38.61680,R,ugm-3
12-01-2014,08:00,50.94024,R,ugm-3
12-01-2014,09:00,53.93379,R,ugm-3
12-01-2014,10:00,44.40433,R,ugm-3
12-01-2014,11:00,43.55615,R,ugm-3
12-01-2014,12:00,44.85336,R,ugm-3
12-01-2014,13:00,45.30239,R,ugm-3
12-01-2014,14:00,56.77767,R,ugm-3
12-01-2014,15:00,69.55015,R,ugm-3
12-01-2014,16:00,71.64563,R,ugm-3
12-01-2014,17:00,60.81896,R,ugm-3
12-01-2014,18:00,57.67573,R,ugm-3
12-01-2014,19:00,50.44132,R,ugm-3
12-01-2014,20:00,49.29379,R,ugm-3
12-01-2014,21:00,46.35013,R,ugm-3
12-01-2014,22:00,40.26325,R,ugm-3
12-01-2014,23:00,36.02239,R,ugm-3
12-01-2014,24:00,35.32389,R,ugm-3
13-01-2014,01:00,34.39256,R,ugm-3
13-01-2014,02:00,35.78955,R,ugm-3
13-01-2014,03:00,41.95959,R,ugm-3
13-01-2014,04:00,58.02498,R,ugm-3
13-01-2014,05:00,65.45896,R,ugm-3
13-01-2014,06:00,65.85810,R,ugm-3
13-01-2014,07:00,63.11401,R,ugm-3
13-01-2014,08:00,56.37853,R,ugm-3
13-01-2014,09:00,55.72992,R,ugm-3
13-01-2014,10:00,57.07702,R,ugm-3
13-01-2014,11:00,58.27444,R,ugm-3
13-01-2014,12:00,62.26584,R,ugm-3
13-01-2014,13:00,67.35488,R,ugm-3
13-01-2014,14:00,63.26369,R,ugm-3
13-01-2014,15:00,58.52390,R,ugm-3
13-01-2014,16:00,49.74282,R,ugm-3
13-01-2014,17:00,50.74067,R,ugm-3
13-01-2014,18:00,51.13981,R,ugm-3
13-01-2014,19:00,54.38283,R,ugm-3
13-01-2014,20:00,56.42842,R,ugm-3
13-01-2014,21:00,57.32648,R,ugm-3
13-01-2014,22:00,62.11616,R,ugm-3
13-01-2014,23:00,61.51745,R,ugm-3
13-01-2014,24:00,65.10971,R,ugm-3
14-01-2014,01:00,66.45681,R,ugm-3
14-01-2014,02:00,62.99760,R,ugm-3
14-01-2014,03:00,62.01638,R,ugm-3
14-01-2014,04:00,62.76477,R,ugm-3
14-01-2014,05:00,59.77122,R,ugm-3
14-01-2014,06:00,59.52175,R,ugm-3
14-01-2014,07:00,58.17466,R,ugm-3
14-01-2014,08:00,51.93809,R,ugm-3
14-01-2014,09:00,44.85336,R,ugm-3
14-01-2014,10:00,47.64734,R,ugm-3
14-01-2014,11:00,53.98369,R,ugm-3
14-01-2014,12:00,54.43272,R,ugm-3
14-01-2014,13:00,51.13981,R,ugm-3
14-01-2014,14:00,51.13981,R,ugm-3
14-01-2014,15:00,50.79057,R,ugm-3
14-01-2014,16:00,50.94024,R,ugm-3
14-01-2014,17:00,53.48476,R,ugm-3
14-01-2014,18:00,34.32604,R,ugm-3
14-01-2014,19:00,23.24991,R,ugm-3
14-01-2014,20:00,30.18496,R,ugm-3
14-01-2014,21:00,34.47572,R,ugm-3
14-01-2014,22:00,34.07658,R,ugm-3
14-01-2014,23:00,38.16776,R,ugm-3
14-01-2014,24:00,29.53636,R,ugm-3
15-01-2014,01:00,39.31529,R,ugm-3
15-01-2014,02:00,57.14354,R,ugm-3
15-01-2014,03:00,62.51530,R,ugm-3
15-01-2014,04:00,64.91014,R,ugm-3
15-01-2014,05:00,67.35488,R,ugm-3
15-01-2014,06:00,66.05767,R,ugm-3
15-01-2014,07:00,62.16606,R,ugm-3
15-01-2014,08:00,57.72562,R,ugm-3
15-01-2014,09:00,52.63659,R,ugm-3
15-01-2014,10:00,48.44562,R,ugm-3
15-01-2014,11:00,46.05078,R,ugm-3
15-01-2014,12:00,48.74497,R,ugm-3
15-01-2014,13:00,52.08777,R,ugm-3
15-01-2014,14:00,53.43487,R,ugm-3
15-01-2014,15:00,49.29379,R,ugm-3
15-01-2014,16:00,47.94669,R,ugm-3
15-01-2014,17:00,49.84261,R,ugm-3
15-01-2014,18:00,51.98799,R,ugm-3
15-01-2014,19:00,52.88605,R,ugm-3
15-01-2014,20:00,55.43057,R,ugm-3
15-01-2014,21:00,54.68218,R,ugm-3
15-01-2014,22:00,53.93379,R,ugm-3
15-01-2014,23:00,56.02928,R,ugm-3
15-01-2014,24:00,63.01423,R,ugm-3
16-01-2014,01:00,64.12849,R,ugm-3
16-01-2014,02:00,61.86670,R,ugm-3
16-01-2014,03:00,63.26369,R,ugm-3
16-01-2014,04:00,64.26154,R,ugm-3
16-01-2014,05:00,64.96004,R,ugm-3
16-01-2014,06:00,65.70842,R,ugm-3
16-01-2014,07:00,63.46326,R,ugm-3
16-01-2014,08:00,59.62154,R,ugm-3
16-01-2014,09:00,57.32648,R,ugm-3
16-01-2014,10:00,56.07917,R,ugm-3
16-01-2014,11:00,52.73637,R,ugm-3
16-01-2014,12:00,50.14196,R,ugm-3
16-01-2014,13:00,53.73422,R,ugm-3
16-01-2014,14:00,59.57165,R,ugm-3
16-01-2014,15:00,59.87100,R,ugm-3
16-01-2014,16:00,58.07487,R,ugm-3
16-01-2014,17:00,56.32863,R,ugm-3
16-01-2014,18:00,58.52390,R,ugm-3
16-01-2014,19:00,58.72347,R,ugm-3
16-01-2014,20:00,58.52390,R,ugm-3
16-01-2014,21:00,60.36993,R,ugm-3
16-01-2014,22:00,61.26799,R,ugm-3
16-01-2014,23:00,61.36778,R,ugm-3
16-01-2014,24:00,62.91444,R,ugm-3
17-01-2014,01:00,63.99545,R,ugm-3
17-01-2014,02:00,63.66283,R,ugm-3
17-01-2014,03:00,67.20520,R,ugm-3
17-01-2014,04:00,70.24864,R,ugm-3
17-01-2014,05:00,71.44606,R,ugm-3
17-01-2014,06:00,69.25079,R,ugm-3
17-01-2014,07:00,70.89724,R,ugm-3
17-01-2014,08:00,72.54370,R,ugm-3
17-01-2014,09:00,70.44821,R,ugm-3
17-01-2014,10:00,71.24649,R,ugm-3
17-01-2014,11:00,70.39832,R,ugm-3
17-01-2014,12:00,69.84950,R,ugm-3
17-01-2014,13:00,69.30068,R,ugm-3
17-01-2014,14:00,68.00348,R,ugm-3
17-01-2014,15:00,66.75617,R,ugm-3
17-01-2014,16:00,63.21380,R,ugm-3
17-01-2014,17:00,60.71917,R,ugm-3
17-01-2014,18:00,58.02498,R,ugm-3
17-01-2014,19:00,53.63444,R,ugm-3
17-01-2014,20:00,49.44347,R,ugm-3
17-01-2014,21:00,47.44777,R,ugm-3
17-01-2014,22:00,43.45637,R,ugm-3
17-01-2014,23:00,42.60820,R,ugm-3
17-01-2014,24:00,42.00949,R,ugm-3
18-01-2014,01:00,40.51271,R,ugm-3
18-01-2014,02:00,40.84533,R,ugm-3
18-01-2014,03:00,40.56260,R,ugm-3
18-01-2014,04:00,40.36303,R,ugm-3
18-01-2014,05:00,41.31099,R,ugm-3
18-01-2014,06:00,45.95099,R,ugm-3
18-01-2014,07:00,44.00519,R,ugm-3
18-01-2014,08:00,41.76002,R,ugm-3
18-01-2014,09:00,41.76002,R,ugm-3
18-01-2014,10:00,47.04863,R,ugm-3
18-01-2014,11:00,42.20906,R,ugm-3
18-01-2014,12:00,45.40218,R,ugm-3
18-01-2014,13:00,47.79702,R,ugm-3
18-01-2014,14:00,44.20476,R,ugm-3
18-01-2014,15:00,43.20691,R,ugm-3
18-01-2014,16:00,39.36518,R,ugm-3
18-01-2014,17:00,35.62325,R,ugm-3
18-01-2014,18:00,38.16776,R,ugm-3
18-01-2014,19:00,39.26540,R,ugm-3
18-01-2014,20:00,38.56690,R,ugm-3
18-01-2014,21:00,37.31959,R,ugm-3
18-01-2014,22:00,39.71443,R,ugm-3
18-01-2014,23:00,39.31529,R,ugm-3
18-01-2014,24:00,37.66884,R,ugm-3
19-01-2014,01:00,38.45049,R,ugm-3
19-01-2014,02:00,38.05135,R,ugm-3
19-01-2014,03:00,30.03529,R,ugm-3
19-01-2014,04:00,25.59485,R,ugm-3
19-01-2014,05:00,25.24561,R,ugm-3
19-01-2014,06:00,21.70324,R,ugm-3
19-01-2014,07:00,22.20216,R,ugm-3
19-01-2014,08:00,21.95270,R,ugm-3
19-01-2014,09:00,24.39743,R,ugm-3
19-01-2014,10:00,33.52776,R,ugm-3
19-01-2014,11:00,50.89035,R,ugm-3
19-01-2014,12:00,53.23530,R,ugm-3
19-01-2014,13:00,54.83186,R,ugm-3
19-01-2014,14:00,54.68218,R,ugm-3
19-01-2014,15:00,52.68648,R,ugm-3
19-01-2014,16:00,58.97294,R,ugm-3
19-01-2014,17:00,54.83186,R,ugm-3
19-01-2014,18:00,56.07917,R,ugm-3
19-01-2014,19:00,52.73637,R,ugm-3
19-01-2014,20:00,49.19401,R,ugm-3
19-01-2014,21:00,47.24820,R,ugm-3
19-01-2014,22:00,43.80562,R,ugm-3
19-01-2014,23:00,45.70153,R,ugm-3
19-01-2014,24:00,46.59960,R,ugm-3
20-01-2014,01:00,45.16934,R,ugm-3
20-01-2014,02:00,43.17364,R,ugm-3
20-01-2014,03:00,39.66454,R,ugm-3
20-01-2014,04:00,43.95529,R,ugm-3
20-01-2014,05:00,46.99874,R,ugm-3
20-01-2014,06:00,56.32863,R,ugm-3
20-01-2014,07:00,59.37208,R,ugm-3
20-01-2014,08:00,62.66498,R,ugm-3
20-01-2014,09:00,71.94499,R,ugm-3
20-01-2014,10:00,63.41337,R,ugm-3
20-01-2014,11:00,55.03143,R,ugm-3
20-01-2014,12:00,38.91615,R,ugm-3
20-01-2014,13:00,38.16776,R,ugm-3
20-01-2014,14:00,32.38023,R,ugm-3
20-01-2014,15:00,25.34539,R,ugm-3
20-01-2014,16:00,11.72474,R,ugm-3
20-01-2014,17:00,8.53162,R,ugm-3
20-01-2014,18:00,7.28431,R,ugm-3
20-01-2014,19:00,6.18667,R,ugm-3
20-01-2014,20:00,6.28646,R,ugm-3
20-01-2014,21:00,11.62495,R,ugm-3
20-01-2014,22:00,9.57936,R,ugm-3
20-01-2014,23:00,11.47528,R,ugm-3
20-01-2014,24:00,8.38194,R,ugm-3
21-01-2014,01:00,21.22094,R,ugm-3
21-01-2014,02:00,25.01277,R,ugm-3
21-01-2014,03:00,22.60130,R,ugm-3
21-01-2014,04:00,21.00474,R,ugm-3
21-01-2014,05:00,23.49937,R,ugm-3
21-01-2014,06:00,17.56216,R,ugm-3
21-01-2014,07:00,13.22151,R,ugm-3
21-01-2014,08:00,8.63140,R,ugm-3
21-01-2014,09:00,8.53162,R,ugm-3
21-01-2014,10:00,13.72044,R,ugm-3
21-01-2014,11:00,18.41033,R,ugm-3
21-01-2014,12:00,19.55786,R,ugm-3
21-01-2014,13:00,27.24131,R,ugm-3
21-01-2014,14:00,27.49077,R,ugm-3
21-01-2014,15:00,26.54281,R,ugm-3
21-01-2014,16:00,15.61635,R,ugm-3
21-01-2014,17:00,20.05679,R,ugm-3
21-01-2014,18:00,30.83357,R,ugm-3
21-01-2014,19:00,32.13077,R,ugm-3
21-01-2014,20:00,34.07658,R,ugm-3
21-01-2014,21:00,31.18281,R,ugm-3
21-01-2014,22:00,40.71228,R,ugm-3
21-01-2014,23:00,49.19401,R,ugm-3
21-01-2014,24:00,48.94454,R,ugm-3
22-01-2014,01:00,55.08132,R,ugm-3
22-01-2014,02:00,54.88175,R,ugm-3
22-01-2014,03:00,55.72992,R,ugm-3
22-01-2014,04:00,54.03358,R,ugm-3
22-01-2014,05:00,51.04003,R,ugm-3
22-01-2014,06:00,48.99444,R,ugm-3
22-01-2014,07:00,42.60820,R,ugm-3
22-01-2014,08:00,46.74927,R,ugm-3
22-01-2014,09:00,49.59315,R,ugm-3
22-01-2014,10:00,48.44562,R,ugm-3
22-01-2014,11:00,47.74712,R,ugm-3
22-01-2014,12:00,46.84906,R,ugm-3
22-01-2014,13:00,44.75357,R,ugm-3
22-01-2014,14:00,42.75787,R,ugm-3
22-01-2014,15:00,39.56475,R,ugm-3
22-01-2014,16:00,39.16561,R,ugm-3
22-01-2014,17:00,35.22411,R,ugm-3
22-01-2014,18:00,36.62110,R,ugm-3
22-01-2014,19:00,39.91400,R,ugm-3
22-01-2014,20:00,33.72733,R,ugm-3
22-01-2014,21:00,26.54281,R,ugm-3
22-01-2014,22:00,21.65335,R,ugm-3
22-01-2014,23:00,22.55141,R,ugm-3
22-01-2014,24:00,23.24991,R,ugm-3
23-01-2014,01:00,22.95055,R,ugm-3
23-01-2014,02:00,25.21234,R,ugm-3
23-01-2014,03:00,22.70109,R,ugm-3
23-01-2014,04:00,21.90281,R,ugm-3
23-01-2014,05:00,25.24561,R,ugm-3
23-01-2014,06:00,24.44733,R,ugm-3
23-01-2014,07:00,21.20431,R,ugm-3
23-01-2014,08:00,23.94840,R,ugm-3
23-01-2014,09:00,28.63830,R,ugm-3
23-01-2014,10:00,36.67099,R,ugm-3
23-01-2014,11:00,38.91615,R,ugm-3
23-01-2014,12:00,50.94024,R,ugm-3
23-01-2014,13:00,56.12906,R,ugm-3
23-01-2014,14:00,60.07057,R,ugm-3
23-01-2014,15:00,67.80391,R,ugm-3
23-01-2014,16:00,66.70627,R,ugm-3
23-01-2014,17:00,65.75832,R,ugm-3
23-01-2014,18:00,64.21165,R,ugm-3
23-01-2014,19:00,58.52390,R,ugm-3
23-01-2014,20:00,52.88605,R,ugm-3
23-01-2014,21:00,60.61939,R,ugm-3
23-01-2014,22:00,56.02928,R,ugm-3
23-01-2014,23:00,55.23100,R,ugm-3
23-01-2014,24:00,55.48046,R,ugm-3
24-01-2014,01:00,55.81308,R,ugm-3
24-01-2014,02:00,51.08992,R,ugm-3
24-01-2014,03:00,47.99659,R,ugm-3
24-01-2014,04:00,47.19831,R,ugm-3
24-01-2014,05:00,44.90325,R,ugm-3
24-01-2014,06:00,43.75572,R,ugm-3
24-01-2014,07:00,42.95744,R,ugm-3
24-01-2014,08:00,40.41293,R,ugm-3
24-01-2014,09:00,40.76217,R,ugm-3
24-01-2014,10:00,29.73593,R,ugm-3
24-01-2014,11:00,38.96604,R,ugm-3
24-01-2014,12:00,48.39573,R,ugm-3
24-01-2014,13:00,47.89680,R,ugm-3
24-01-2014,14:00,45.35228,R,ugm-3
24-01-2014,15:00,48.19616,R,ugm-3
24-01-2014,16:00,45.45207,R,ugm-3
24-01-2014,17:00,42.60820,R,ugm-3
24-01-2014,18:00,35.67314,R,ugm-3
24-01-2014,19:00,38.76647,R,ugm-3
24-01-2014,20:00,37.81852,R,ugm-3
24-01-2014,21:00,46.00089,R,ugm-3
24-01-2014,22:00,51.04003,R,ugm-3
24-01-2014,23:00,51.68863,R,ugm-3
24-01-2014,24:00,51.33938,R,ugm-3
25-01-2014,01:00,53.55128,R,ugm-3
25-01-2014,02:00,41.17794,R,ugm-3
25-01-2014,03:00,27.59055,R,ugm-3
25-01-2014,04:00,25.84432,R,ugm-3
25-01-2014,05:00,30.48432,R,ugm-3
25-01-2014,06:00,33.02884,R,ugm-3
25-01-2014,07:00,35.27400,R,ugm-3
25-01-2014,08:00,37.46927,R,ugm-3
25-01-2014,09:00,38.91615,R,ugm-3
25-01-2014,10:00,37.12002,R,ugm-3
25-01-2014,11:00,40.26325,R,ugm-3
25-01-2014,12:00,44.60390,R,ugm-3
25-01-2014,13:00,44.45422,R,ugm-3
25-01-2014,14:00,43.20691,R,ugm-3
25-01-2014,15:00,36.77077,R,ugm-3
25-01-2014,16:00,31.13292,R,ugm-3
25-01-2014,17:00,60.02068,R,ugm-3
25-01-2014,18:00,81.32478,R,ugm-3
25-01-2014,19:00,77.73252,R,ugm-3
25-01-2014,20:00,72.49380,R,ugm-3
25-01-2014,21:00,70.39832,R,ugm-3
25-01-2014,22:00,71.84520,R,ugm-3
25-01-2014,23:00,66.05767,R,ugm-3
25-01-2014,24:00,64.31143,R,ugm-3
26-01-2014,01:00,63.52978,R,ugm-3
26-01-2014,02:00,65.52548,R,ugm-3
26-01-2014,03:00,63.01423,R,ugm-3
26-01-2014,04:00,59.27229,R,ugm-3
26-01-2014,05:00,57.82541,R,ugm-3
26-01-2014,06:00,55.08132,R,ugm-3
26-01-2014,07:00,55.48046,R,ugm-3
26-01-2014,08:00,55.23100,R,ugm-3
26-01-2014,09:00,56.32863,R,ugm-3
26-01-2014,10:00,57.47616,R,ugm-3
26-01-2014,11:00,57.82541,R,ugm-3
26-01-2014,12:00,62.36563,R,ugm-3
26-01-2014,13:00,67.10541,R,ugm-3
26-01-2014,14:00,75.68692,R,ugm-3
26-01-2014,15:00,77.73252,R,ugm-3
26-01-2014,16:00,73.84090,R,ugm-3
26-01-2014,17:00,69.30068,R,ugm-3
26-01-2014,18:00,74.88864,R,ugm-3
26-01-2014,19:00,74.68907,R,ugm-3
26-01-2014,20:00,70.59789,R,ugm-3
26-01-2014,21:00,68.95144,R,ugm-3
26-01-2014,22:00,64.66068,R,ugm-3
26-01-2014,23:00,65.45896,R,ugm-3
26-01-2014,24:00,65.35918,R,ugm-3
27-01-2014,01:00,64.66068,R,ugm-3
27-01-2014,02:00,66.72290,R,ugm-3
27-01-2014,03:00,68.95144,R,ugm-3
27-01-2014,04:00,68.05337,R,ugm-3
27-01-2014,05:00,69.45036,R,ugm-3
27-01-2014,06:00,67.05552,R,ugm-3
27-01-2014,07:00,66.90584,R,ugm-3
27-01-2014,08:00,67.00563,R,ugm-3
27-01-2014,09:00,65.85810,R,ugm-3
27-01-2014,10:00,65.55875,R,ugm-3
27-01-2014,11:00,62.06627,R,ugm-3
27-01-2014,12:00,58.62369,R,ugm-3
27-01-2014,13:00,56.72777,R,ugm-3
27-01-2014,14:00,55.63014,R,ugm-3
27-01-2014,15:00,54.48261,R,ugm-3
27-01-2014,16:00,55.43057,R,ugm-3
27-01-2014,17:00,55.28089,R,ugm-3
27-01-2014,18:00,54.48261,R,ugm-3
27-01-2014,19:00,57.72562,R,ugm-3
27-01-2014,20:00,58.17466,R,ugm-3
27-01-2014,21:00,53.08562,R,ugm-3
27-01-2014,22:00,49.74282,R,ugm-3
27-01-2014,23:00,43.50626,R,ugm-3
27-01-2014,24:00,35.27400,R,ugm-3
28-01-2014,01:00,34.85823,R,ugm-3
28-01-2014,02:00,37.98482,R,ugm-3
28-01-2014,03:00,45.45207,R,ugm-3
28-01-2014,04:00,54.68218,R,ugm-3
28-01-2014,05:00,60.22025,R,ugm-3
28-01-2014,06:00,64.71057,R,ugm-3
28-01-2014,07:00,68.45251,R,ugm-3
28-01-2014,08:00,67.20520,R,ugm-3
28-01-2014,09:00,67.25509,R,ugm-3
28-01-2014,10:00,67.00563,R,ugm-3
28-01-2014,11:00,63.51315,R,ugm-3
28-01-2014,12:00,64.91014,R,ugm-3
28-01-2014,13:00,66.60649,R,ugm-3
28-01-2014,14:00,68.65208,R,ugm-3
28-01-2014,15:00,67.90369,R,ugm-3
28-01-2014,16:00,68.00348,R,ugm-3
28-01-2014,17:00,67.40477,R,ugm-3
28-01-2014,18:00,66.15746,R,ugm-3
28-01-2014,19:00,66.40692,R,ugm-3
28-01-2014,20:00,61.66713,R,ugm-3
28-01-2014,21:00,65.15961,R,ugm-3
28-01-2014,22:00,65.75832,R,ugm-3
28-01-2014,23:00,52.18756,R,ugm-3
28-01-2014,24:00,54.88175,R,ugm-3
29-01-2014,01:00,55.28089,R,ugm-3
29-01-2014,02:00,54.68218,R,ugm-3
29-01-2014,03:00,55.97939,R,ugm-3
29-01-2014,04:00,57.72562,R,ugm-3
29-01-2014,05:00,56.37853,R,ugm-3
29-01-2014,06:00,52.58670,R,ugm-3
29-01-2014,07:00,50.64089,R,ugm-3
29-01-2014,08:00,45.85121,R,ugm-3
29-01-2014,09:00,30.48432,R,ugm-3
29-01-2014,10:00,32.72948,R,ugm-3
29-01-2014,11:00,37.21981,R,ugm-3
29-01-2014,12:00,38.21766,R,ugm-3
29-01-2014,13:00,39.16561,R,ugm-3
29-01-2014,14:00,34.92475,R,ugm-3
29-01-2014,15:00,43.45637,R,ugm-3
29-01-2014,16:00,50.19186,R,ugm-3
29-01-2014,17:00,52.03788,R,ugm-3
29-01-2014,18:00,52.33723,R,ugm-3
29-01-2014,19:00,48.99444,R,ugm-3
29-01-2014,20:00,51.08992,R,ugm-3
29-01-2014,21:00,49.09422,R,ugm-3
29-01-2014,22:00,45.05293,R,ugm-3
29-01-2014,23:00,41.31099,R,ugm-3
29-01-2014,24:00,37.46927,R,ugm-3
30-01-2014,01:00,36.12217,R,ugm-3
30-01-2014,02:00,38.18439,R,ugm-3
30-01-2014,03:00,35.92260,R,ugm-3
30-01-2014,04:00,35.77292,R,ugm-3